Regional Weather Roundup
Issued by NWS Cleveland, OH

Home | Current Version | Previous Version | Graphics & Text | Print | Product List | Glossary On
Versions: 1 2 3 4 5 6 7 8 9 10 11 12 13 14 15 16 17 18 19 20 21 22 23 24 25 26 27 28 29 30 31 32 33 34 35 36 37 38 39 40 41 42 43 44 45 46 47 48 49 50
000
ASUS41 KCLE 251510
RWRCLE
OHIO REGIONAL WEATHER ROUNDUP
NATIONAL WEATHER SERVICE WILMINGTON, OH
1100 AM EDT WED MAY 25 2016

NOTE: "FAIR" INDICATES FEW OR NO CLOUDS BELOW 12,000 FEET WITH NO
SIGNIFICANT WEATHER AND/OR OBSTRUCTIONS TO VISIBILITY.

OHZ001>008-015>018-024>027-034-035-043-044-251600-
   NORTHWEST OHIO

CITY           SKY/WX    TMP DP  RH WIND       PRES   REMARKS
DEFIANCE       PTSUNNY   79  55  43 SW13      30.10F
FINDLAY        FAIR      80  56  43 SW15      30.12R
TOLEDO EXPRESS FAIR      80  55  42 SW9       30.10R
TOLEDO EXEC    FAIR      81  55  40 SW13      30.11R
LIMA           CLOUDY    74  58  57 SW15      30.14R
$$

OHZ009>014-019>023-028>033-038-089-251600-
   NORTHEAST OHIO

CITY           SKY/WX    TMP DP  RH WIND       PRES   REMARKS
CLE-HOPKINS    FAIR      79  55  43 SW9       30.15S
CLE-LAKEFRONT  FAIR      78  56  46 W9        30.12R
CUY CO. ARPT   MOSUNNY   81  55  41 W7        30.13F
LORAIN-ELYRIA  FAIR      79  54  41 W12       30.13S
ASHTABULA      FAIR      77  53  43 W8        30.14R
AKRON-CANTON   PTSUNNY   74  53  48 SW7       30.17R
WOOSTER        FAIR      75  54  47 SW8       30.17R
MANSFIELD      FAIR      77  54  44 SW14      30.16R
YOUNGSTOWN     PTSUNNY   76  53  44 SW9       30.16R
$$

OHZ042-051>053-060>062-070>072-077>081-251600-
  SOUTHWEST OHIO

CITY           SKY/WX    TMP DP  RH WIND       PRES   REMARKS
CINC-COVINGTON CLOUDY    70  57  63 S6        30.14R
CINC-LUNKEN    LGT RAIN  65  61  87 CALM      30.16R
HAMILTON       LGT RAIN  70  58  65 VRB3      30.15S
DAYTON         PTSUNNY   73  54  51 S13       30.15S
WRIGHT-PAT AFB PTSUNNY   75  58  54 S10       30.14S
DAYTON GENERAL CLOUDY    70  55  59 S5        30.14S
WILMINGTON     PTSUNNY   75  56  51 S8        30.15F
$$

OHZ036-037-039>041-045>050-054>059-063>069-073>076-082>088-251600-
  CENTRAL AND SOUTHEAST OHIO

CITY           SKY/WX    TMP DP  RH WIND       PRES   REMARKS
COLUMBUS       FAIR      76  52  43 S13       30.15S
OSU AIRPORT    FAIR      78  55  44 S13       30.14F
BOLTON FIELD   SUNNY     79  55  44 S14       30.16S
RICKENBACK AFB FAIR      76  55  47 S13       30.15F
NEWARK         FAIR      79  54  41 SW8       30.15S
MARION         FAIR      76  52  43 S17       30.15R
LANCASTER      FAIR      78  52  40 S13       30.17R
ZANESVILLE     FAIR      76  56  49 S7        30.18R
NEW PHILLY     FAIR      78  49  35 CALM      30.17R
$$




USA.gov is the U.S. government's official web portal to all federal, state and local government web resources and services.